| time (UTC) | temp C | wind direction | speed KPH | gust KPH | rain 1hr cm | rain 24hr cm | rain mn cm | humidity % | barometer mb |
| 20260502123603 | 10 | 191 | 0.0 | 1.6 | 0.00 | 0.00 | 0.00 | 55 | 1027.4 |
| 20260502122703 | 10 | 0 | 0.0 | 0.0 | 0.00 | 0.00 | 0.00 | 57 | 1027.4 |
| 20260502121824 | 10 | 0 | 0.0 | 0.0 | 0.00 | 0.00 | 0.00 | 57 | 1027.4 |
| 20260502120903 | 10 | 173 | 0.0 | 3.2 | 0.00 | 0.00 | 0.00 | 58 | 1027.4 |
| 20260502115403 | 10 | 173 | 0.0 | 1.6 | 0.00 | 0.00 | 0.00 | 58 | 1027.4 |
| 20260502113603 | 10 | 173 | 0.0 | 3.2 | 0.00 | 0.00 | 0.00 | 56 | 1027.4 |
| 20260502112703 | 10 | 173 | 0.0 | 1.6 | 0.00 | 0.00 | 0.00 | 54 | 1027.4 |
| 20260502111803 | 10 | 173 | 0.0 | 3.2 | 0.00 | 0.00 | 0.00 | 55 | 1027.4 |
| 20260502110903 | 10 | 172 | 0.0 | 6.4 | 0.00 | 0.00 | 0.00 | 52 | 1027.4 |
| 20260502110003 | 10 | 173 | 0.0 | 1.6 | 0.00 | 0.00 | 0.00 | 49 | 1027.4 |
| 20260502105424 | 10 | 175 | 0.0 | 3.2 | 0.00 | 0.00 | 0.00 | 48 | 1027.4 |
| 20260502104503 | 10 | 179 | 0.0 | 1.6 | 0.00 | 0.00 | 0.00 | 49 | 1027.4 |
| 20260502103603 | 10 | 0 | 0.0 | 0.0 | 0.00 | 0.00 | 0.00 | 50 | 1027.4 |
| 20260502102703 | 10 | 179 | 0.0 | 3.2 | 0.00 | 0.00 | 0.00 | 51 | 1027.4 |
| 20260502101803 | 10 | 216 | 0.0 | 3.2 | 0.00 | 0.00 | 0.00 | 50 | 1027.4 |
| 20260502100903 | 10 | 221 | 0.0 | 1.6 | 0.00 | 0.00 | 0.00 | 50 | 1027.4 |
| 20260502090903 | 10 | 0 | 0.0 | 0.0 | 0.00 | 0.00 | 0.00 | 44 | 1027.4 |
| 20260502070903 | 8 | 298 | 0.0 | 3.2 | 0.00 | 0.00 | 0.00 | 50 | 1027.4 |
| 20260502070004 | 8 | 298 | 0.0 | 3.2 | 0.00 | 0.00 | 0.00 | 49 | 1027.4 |
| 20260502065403 | 8 | 298 | 0.0 | 3.2 | 0.00 | 0.00 | 0.00 | 49 | 1027.4 |
| 20260502064504 | 8 | 298 | 0.0 | 3.2 | 0.00 | 0.00 | 0.00 | 49 | 1027.4 |
| 20260502063603 | 8 | 298 | 0.0 | 3.2 | 0.00 | 0.00 | 0.00 | 48 | 1027.4 |
| 20260502062703 | 9 | 0 | 0.0 | 0.0 | 0.00 | 0.00 | 0.00 | 48 | 1027.4 |
| 20260502061824 | 9 | 298 | 0.0 | 1.6 | 0.00 | 0.00 | 0.00 | 46 | 1027.4 |
| 20260502060903 | 10 | 298 | 0.0 | 1.6 | 0.00 | 0.00 | 0.00 | 46 | 1027.4 |
| 20260502060004 | 10 | 0 | 0.0 | 0.0 | 0.00 | 0.00 | 0.00 | 44 | 1027.4 |
| 20260502055424 | 10 | 0 | 0.0 | 0.0 | 0.00 | 0.00 | 0.00 | 44 | 1027.4 |
| 20260502054503 | 10 | 298 | 0.0 | 3.2 | 0.00 | 0.00 | 0.00 | 45 | 1027.4 |
| 20260502053603 | 10 | 0 | 0.0 | 0.0 | 0.00 | 0.00 | 0.00 | 44 | 1027.4 |
| 20260502052703 | 11 | 0 | 0.0 | 0.0 | 0.00 | 0.00 | 0.00 | 41 | 1027.4 |
| 20260502051803 | 11 | 0 | 0.0 | 0.0 | 0.00 | 0.00 | 0.00 | 39 | 1027.4 |
| 20260502050903 | 11 | 0 | 0.0 | 0.0 | 0.00 | 0.00 | 0.00 | 39 | 1027.4 |
| 20260502050004 | 11 | 298 | 0.0 | 1.6 | 0.00 | 0.00 | 0.00 | 40 | 1027.4 |
| 20260502045403 | 11 | 298 | 0.0 | 1.6 | 0.00 | 0.00 | 0.00 | 40 | 1027.4 |
| 20260502044504 | 11 | 298 | 0.0 | 1.6 | 0.00 | 0.00 | 0.00 | 40 | 1027.4 |
| 20260502043603 | 12 | 0 | 0.0 | 0.0 | 0.00 | 0.00 | 0.00 | 38 | 1027.4 |
| 20260502042703 | 12 | 298 | 0.0 | 1.6 | 0.00 | 0.00 | 0.00 | 36 | 1027.4 |
| 20260502041803 | 13 | 298 | 0.0 | 1.6 | 0.00 | 0.00 | 0.00 | 36 | 1027.4 |
| 20260502040903 | 13 | 0 | 0.0 | 0.0 | 0.00 | 0.00 | 0.00 | 35 | 1027.4 |
| 20260502040004 | 13 | 299 | 0.0 | 1.6 | 0.00 | 0.00 | 0.00 | 34 | 1027.4 |
| 20260502035404 | 13 | 0 | 0.0 | 0.0 | 0.00 | 0.00 | 0.00 | 35 | 1027.4 |
| 20260502034503 | 14 | 0 | 0.0 | 0.0 | 0.00 | 0.00 | 0.00 | 34 | 1027.4 |
| 20260502033603 | 14 | 0 | 0.0 | 0.0 | 0.00 | 0.00 | 0.00 | 33 | 1027.4 |
| 20260502032703 | 15 | 299 | 0.0 | 1.6 | 0.00 | 0.00 | 0.00 | 32 | 1027.4 |
| 20260502031803 | 15 | 0 | 0.0 | 0.0 | 0.00 | 0.00 | 0.00 | 31 | 1027.4 |
| 20260502030903 | 15 | 0 | 0.0 | 0.0 | 0.00 | 0.00 | 0.00 | 31 | 1027.4 |
| 20260502030004 | 15 | 299 | 0.0 | 1.6 | 0.00 | 0.00 | 0.00 | 30 | 1027.4 |
| 20260502025403 | 15 | 299 | 0.0 | 4.8 | 0.00 | 0.00 | 0.00 | 29 | 1027.4 |
| 20260502024503 | 16 | 299 | 0.0 | 3.2 | 0.00 | 0.00 | 0.00 | 28 | 1027.4 |
| 20260502023604 | 16 | 299 | 0.0 | 4.8 | 0.00 | 0.00 | 0.00 | 28 | 1027.4 |
| 20260502022724 | 16 | 304 | 1.6 | 6.4 | 0.00 | 0.00 | 0.00 | 28 | 1027.4 |
| 20260502021803 | 16 | 306 | 1.6 | 4.8 | 0.00 | 0.00 | 0.00 | 27 | 1027.4 |
| 20260502020903 | 16 | 303 | 3.2 | 11.3 | 0.00 | 0.00 | 0.00 | 27 | 1027.4 |
| 20260502020025 | 16 | 302 | 3.2 | 11.3 | 0.00 | 0.00 | 0.00 | 26 | 1027.4 |
| 20260502015403 | 16 | 312 | 3.2 | 12.9 | 0.00 | 0.00 | 0.00 | 26 | 1027.4 |
| 20260502014503 | 16 | 319 | 6.4 | 17.7 | 0.00 | 0.00 | 0.00 | 26 | 1027.4 |
| 20260502013603 | 17 | 326 | 6.4 | 16.1 | 0.00 | 0.00 | 0.00 | 26 | 1027.4 |
| 20260502012703 | 17 | 332 | 4.8 | 14.5 | 0.00 | 0.00 | 0.00 | 27 | 1027.4 |
| 20260502011803 | 17 | 324 | 6.4 | 19.3 | 0.00 | 0.00 | 0.00 | 26 | 1027.4 |
| 20260502010903 | 17 | 312 | 6.4 | 19.3 | 0.00 | 0.00 | 0.00 | 26 | 1027.4 |
| 20260502010003 | 17 | 322 | 8.0 | 20.9 | 0.00 | 0.00 | 0.00 | 26 | 1027.4 |
| 20260502005403 | 18 | 321 | 6.4 | 20.9 | 0.00 | 0.00 | 0.00 | 26 | 1027.4 |
| 20260502004503 | 18 | 316 | 9.7 | 22.5 | 0.00 | 0.00 | 0.00 | 26 | 1027.4 |
| 20260502003603 | 18 | 321 | 9.7 | 20.9 | 0.00 | 0.00 | 0.00 | 25 | 1027.4 |
| 20260502002703 | 18 | 304 | 6.4 | 16.1 | 0.00 | 0.00 | 0.00 | 24 | 1027.4 |
| 20260502001803 | 18 | 309 | 8.0 | 22.5 | 0.00 | 0.00 | 0.00 | 25 | 1027.4 |
| 20260502000903 | 18 | 300 | 9.7 | 22.5 | 0.00 | 0.00 | 0.00 | 24 | 1027.4 |
| 20260502000003 | 18 | 318 | 8.0 | 22.5 | 0.00 | 0.00 | 0.00 | 25 | 1027.4 |
| 20260501235403 | 18 | 332 | 8.0 | 22.5 | 0.00 | 0.00 | 0.00 | 25 | 1027.4 |
| 20260501234503 | 19 | 323 | 9.7 | 22.5 | 0.00 | 0.00 | 0.00 | 24 | 1027.4 |
| 20260501233603 | 19 | 322 | 6.4 | 20.9 | 0.00 | 0.00 | 0.00 | 24 | 1027.4 |
| 20260501232703 | 19 | 335 | 9.7 | 24.1 | 0.00 | 0.00 | 0.00 | 25 | 1027.4 |
| 20260501231803 | 19 | 332 | 4.8 | 19.3 | 0.00 | 0.00 | 0.00 | 25 | 1027.4 |
| 20260501230903 | 18 | 328 | 9.7 | 29.0 | 0.00 | 0.00 | 0.00 | 24 | 1027.4 |
| 20260501230003 | 19 | 15 | 6.4 | 16.1 | 0.00 | 0.00 | 0.00 | 24 | 1027.4 |
| 20260501225403 | 19 | 360 | 6.4 | 16.1 | 0.00 | 0.00 | 0.00 | 22 | 1027.4 |
| 20260501224503 | 19 | 1 | 6.4 | 17.7 | 0.00 | 0.00 | 0.00 | 24 | 1027.4 |
| 20260501223603 | 19 | 329 | 8.0 | 17.7 | 0.00 | 0.00 | 0.00 | 22 | 1027.4 |
| 20260501222703 | 18 | 15 | 8.0 | 20.9 | 0.00 | 0.00 | 0.00 | 23 | 1027.4 |
| 20260501221803 | 19 | 31 | 4.8 | 19.3 | 0.00 | 0.00 | 0.00 | 23 | 1027.4 |
| 20260501220903 | 18 | 12 | 4.8 | 17.7 | 0.00 | 0.00 | 0.00 | 24 | 1027.4 |
| 20260501220003 | 18 | 14 | 9.7 | 20.9 | 0.00 | 0.00 | 0.00 | 22 | 1027.4 |
| 20260501215403 | 19 | 340 | 8.0 | 20.9 | 0.00 | 0.00 | 0.00 | 23 | 1027.4 |
| 20260501214503 | 19 | 334 | 8.0 | 22.5 | 0.00 | 0.00 | 0.00 | 24 | 1027.4 |
| 20260501213624 | 19 | 342 | 3.2 | 14.5 | 0.00 | 0.00 | 0.00 | 23 | 1027.4 |
| 20260501212703 | 19 | 359 | 4.8 | 17.7 | 0.00 | 0.00 | 0.00 | 24 | 1027.4 |
| 20260501211803 | 18 | 32 | 6.4 | 14.5 | 0.00 | 0.00 | 0.00 | 22 | 1027.4 |
| 20260501210903 | 18 | 16 | 6.4 | 17.7 | 0.00 | 0.00 | 0.00 | 23 | 1027.4 |
| 20260501210003 | 20 | 35 | 3.2 | 16.1 | 0.00 | 0.00 | 0.00 | 22 | 1027.4 |
| 20260501205424 | 20 | 314 | 6.4 | 19.3 | 0.00 | 0.00 | 0.00 | 22 | 1027.4 |
| 20260501204503 | 20 | 331 | 6.4 | 16.1 | 0.00 | 0.00 | 0.00 | 26 | 1027.4 |
| 20260501203603 | 20 | 228 | 3.2 | 11.3 | 0.00 | 0.00 | 0.00 | 23 | 1027.4 |
| 20260501202724 | 18 | 232 | 0.0 | 8.0 | 0.00 | 0.00 | 0.00 | 25 | 1027.4 |
| 20260501201803 | 18 | 308 | 1.6 | 12.9 | 0.00 | 0.00 | 0.00 | 26 | 1027.4 |
| 20260501200924 | 18 | 326 | 6.4 | 14.5 | 0.00 | 0.00 | 0.00 | 23 | 1027.4 |
| 20260501200024 | 18 | 359 | 6.4 | 19.3 | 0.00 | 0.00 | 0.00 | 24 | 1027.4 |
| 20260501195403 | 18 | 333 | 4.8 | 17.7 | 0.00 | 0.00 | 0.00 | 26 | 1027.4 |
| 20260501194524 | 18 | 293 | 3.2 | 11.3 | 0.00 | 0.00 | 0.00 | 26 | 1027.4 |
| 20260501193603 | 17 | 333 | 6.4 | 19.3 | 0.00 | 0.00 | 0.00 | 25 | 1027.4 |
| 20260501192703 | 17 | 336 | 6.4 | 19.3 | 0.00 | 0.00 | 0.00 | 26 | 1027.4 |
| 20260501191803 | 17 | 347 | 6.4 | 16.1 | 0.00 | 0.00 | 0.00 | 26 | 1027.4 |
| 20260501190903 | 18 | 347 | 6.4 | 17.7 | 0.00 | 0.00 | 0.00 | 23 | 1027.4 |
| 20260501190003 | 17 | 315 | 8.0 | 17.7 | 0.00 | 0.00 | 0.00 | 24 | 1027.4 |
| 20260501185424 | 17 | 308 | 4.8 | 17.7 | 0.00 | 0.00 | 0.00 | 26 | 1027.4 |
| 20260501184504 | 17 | 23 | 4.8 | 14.5 | 0.00 | 0.00 | 0.00 | 24 | 1027.4 |
| 20260501183603 | 17 | 46 | 6.4 | 19.3 | 0.00 | 0.00 | 0.00 | 23 | 1027.4 |
| 20260501182703 | 17 | 352 | 6.4 | 19.3 | 0.00 | 0.00 | 0.00 | 24 | 1027.4 |
| 20260501181803 | 17 | 316 | 6.4 | 19.3 | 0.00 | 0.00 | 0.00 | 24 | 1027.4 |
| 20260501180924 | 17 | 17 | 8.0 | 17.7 | 0.00 | 0.00 | 0.00 | 24 | 1027.4 |
| 20260501180003 | 16 | 40 | 6.4 | 16.1 | 0.00 | 0.00 | 0.00 | 25 | 1027.4 |
| 20260501175403 | 16 | 56 | 9.7 | 19.3 | 0.00 | 0.00 | 0.00 | 25 | 1027.4 |
| 20260501174503 | 16 | 37 | 3.2 | 16.1 | 0.00 | 0.00 | 0.00 | 26 | 1027.4 |
| 20260501173603 | 16 | 100 | 4.8 | 12.9 | 0.00 | 0.00 | 0.00 | 28 | 1027.4 |
| 20260501172703 | 16 | 340 | 1.6 | 14.5 | 0.00 | 0.00 | 0.00 | 27 | 1027.4 |
| 20260501171803 | 16 | 333 | 3.2 | 12.9 | 0.00 | 0.00 | 0.00 | 30 | 1027.4 |
| 20260501170903 | 16 | 344 | 3.2 | 9.7 | 0.00 | 0.00 | 0.00 | 29 | 1027.4 |
| 20260501170004 | 16 | 347 | 4.8 | 12.9 | 0.00 | 0.00 | 0.00 | 30 | 1027.4 |
| 20260501165403 | 15 | 354 | 1.6 | 12.9 | 0.00 | 0.00 | 0.00 | 30 | 1027.4 |
| 20260501164503 | 15 | 327 | 1.6 | 12.9 | 0.00 | 0.00 | 0.00 | 31 | 1027.4 |
| 20260501163603 | 15 | 41 | 3.2 | 9.7 | 0.00 | 0.00 | 0.00 | 30 | 1027.4 |
| 20260501162724 | 15 | 57 | 4.8 | 9.7 | 0.00 | 0.00 | 0.00 | 31 | 1027.4 |
| 20260501161803 | 14 | 61 | 4.8 | 12.9 | 0.00 | 0.00 | 0.00 | 33 | 1027.4 |
| 20260501160903 | 14 | 53 | 3.2 | 9.7 | 0.00 | 0.00 | 0.00 | 32 | 1027.4 |
| 20260501160024 | 14 | 47 | 3.2 | 8.0 | 0.00 | 0.00 | 0.00 | 34 | 1027.4 |
| 20260501155403 | 14 | 45 | 3.2 | 8.0 | 0.00 | 0.00 | 0.00 | 34 | 1027.4 |
| 20260501154503 | 13 | 37 | 1.6 | 8.0 | 0.00 | 0.00 | 0.00 | 36 | 1027.4 |
| 20260501153603 | 13 | 36 | 1.6 | 6.4 | 0.00 | 0.00 | 0.00 | 38 | 1027.4 |
| 20260501152703 | 13 | 47 | 1.6 | 6.4 | 0.00 | 0.00 | 0.00 | 38 | 1027.4 |
| 20260501151803 | 13 | 48 | 1.6 | 8.0 | 0.00 | 0.00 | 0.00 | 39 | 1027.4 |
| 20260501150903 | 12 | 51 | 1.6 | 6.4 | 0.00 | 0.00 | 0.00 | 40 | 1027.4 |